Theta_e
305 297 296 296 297 300 302 302 302 303 302 301 301 301 299 299 301 302 302 303 304 300 300 300 301 301 302 304 306 307 309 309 309 310 313 318 319 319 322 324 325 325 327 332 332 333 335 335 337 339 341 341 343 342 341 342 342 339 338 338 337 339 339 337 334 336 334 332 335 337 333 335 337 338 342 340 341 340 347 339 341 343 342 343 344 344
304 296 297 300 300 302 303 304 304 303 303 300 300 299 297 299 297 301 302 303 305 301 299 302 301 301 302 304 305 307 308 306 308 309 311 312 315 317 320 323 322 323 331 332 332 333 335 335 339 340 339 339 339 340 341 341 341 339 338 339 338 338 338 337 337 335 336 336 336 335 335 338 337 338 337 337 339 341 341 341 341 343 341 342 344 343
298 295 299 302 303 304 305 305 304 302 302 302 299 298 297 298 300 303 302 304 304 301 299 301 299 300 303 304 305 306 306 308 310 309 311 312 312 316 317 321 325 320 323 324 332 332 333 336 338 338 339 340 340 340 340 341 341 341 340 339 339 341 339 339 338 337 336 340 340 339 338 339 340 341 341 343 339 340 338 339 339 340 345 343 343 344
296 298 301 304 304 303 302 304 304 303 303 300 299 297 295 299 297 295 302 302 303 301 299 301 299 301 304 306 306 307 306 308 309 310 310 312 312 314 316 318 323 322 321 325 325 330 332 335 336 337 337 338 338 338 339 340 339 340 340 340 339 338 338 339 340 338 340 338 341 342 341 342 340 340 340 342 341 339 338 337 338 342 343 343 343 341
298 302 305 303 303 303 302 303 302 300 298 300 300 299 298 298 299 298 299 302 303 303 304 301 298 298 300 300 302 306 308 307 308 309 310 311 311 313 317 318 323 324 325 327 330 334 335 335 335 336 336 337 336 337 337 339 339 339 341 342 341 340 340 336 338 340 342 341 340 341 341 338 335 338 339 338 337 339 336 337 341 343 342 342 339 340
299 304 305 302 302 302 302 300 300 300 296 298 301 300 300 301 300 300 301 300 298 297 301 299 291 292 299 300 300 303 305 305 307 308 308 309 311 311 313 315 320 326 328 324 329 330 329 334 334 336 336 336 336 337 338 339 340 340 341 342 342 341 339 338 338 341 341 340 338 333 334 331 332 333 333 333 334 335 334 335 336 341 340 339 339 339
300 305 304 302 302 301 300 298 301 301 297 296 298 302 301 300 300 299 299 298 293 291 298 303 292 289 299 299 301 303 304 304 307 307 307 308 308 309 309 313 315 322 326 326 328 331 325 329 336 334 336 335 336 338 340 340 341 340 341 343 336 336 337 337 338 340 339 335 337 338 335 333 333 332 334 337 337 336 337 339 341 338 341 339 339 339
302 302 302 302 301 299 298 296 300 301 297 295 302 302 302 301 299 299 298 297 296 300 301 300 299 293 292 298 302 304 304 304 305 306 307 307 309 309 310 311 315 318 324 323 323 328 327 327 329 334 335 338 337 339 339 341 341 340 341 340 333 332 332 334 335 338 340 335 340 337 336 334 334 336 334 334 336 336 337 339 337 337 338 338 339 339
303 301 302 300 300 298 297 299 301 302 298 298 302 302 301 300 300 299 298 297 298 296 292 297 300 293 292 297 302 303 301 302 303 306 310 311 313 313 313 311 312 316 324 324 326 327 326 326 334 332 331 337 340 339 339 339 341 342 339 333 335 333 331 332 333 333 336 338 338 336 333 330 333 335 336 338 336 338 340 338 336 337 337 338 339 338
303 303 303 302 300 297 300 302 302 302 298 301 303 303 302 301 300 299 298 296 296 294 289 294 299 292 292 298 299 301 300 301 304 310 313 315 316 313 311 314 315 321 325 326 328 330 332 336 337 335 335 335 337 340 340 341 341 335 330 329 332 334 334 336 334 333 333 333 334 332 333 333 334 336 336 335 334 334 338 336 335 336 335 335 337 338
304 307 307 303 300 301 302 303 303 303 303 304 302 300 299 299 298 299 298 297 295 288 291 296 298 295 289 296 300 304 304 309 311 312 314 316 316 315 315 313 314 317 325 326 324 325 336 338 338 338 336 335 337 339 338 335 328 327 328 329 330 335 334 336 335 333 332 333 334 334 334 335 334 335 334 332 332 332 333 334 334 334 335 335 335 336
302 303 301 303 306 305 304 301 304 305 304 302 299 297 297 296 298 297 296 297 288 286 294 297 297 296 287 295 302 307 311 311 311 311 312 313 314 316 318 317 316 322 327 327 326 331 335 334 335 337 335 334 335 336 334 326 327 327 330 330 330 333 334 334 333 330 328 329 332 333 334 334 335 334 332 331 330 330 332 332 332 333 333 333 334 336
298 299 302 303 306 303 302 299 301 302 302 300 299 297 292 289 289 286 291 285 287 286 294 298 298 295 294 297 304 308 309 312 313 312 314 314 315 317 318 316 319 328 331 329 330 332 333 333 334 334 335 335 335 332 327 325 326 328 329 329 330 331 332 331 332 329 329 331 331 333 333 334 334 334 331 330 328 333 332 331 331 330 329 330 330 332
296 301 301 301 303 304 303 296 297 296 299 298 296 294 290 286 285 282 287 289 290 294 297 298 299 292 297 303 307 308 312 313 315 316 317 318 319 319 319 320 325 328 328 330 331 331 333 332 333 334 334 336 329 325 324 325 327 329 331 331 331 332 332 332 332 330 329 332 333 335 335 336 335 334 333 331 327 330 333 332 330 330 330 329 331 332
288 290 296 299 296 304 302 301 300 299 298 297 300 296 293 292 288 282 286 284 286 290 294 299 294 291 291 297 311 312 313 315 315 316 319 320 320 322 322 323 324 323 326 326 327 327 330 332 332 332 332 328 326 325 325 328 329 331 330 331 331 332 332 331 331 330 330 332 334 334 335 335 335 334 330 328 328 332 332 332 331 332 332 331 332 331
293 293 299 303 303 303 300 303 304 301 299 300 300 300 294 291 297 289 291 292 291 289 291 294 292 298 299 308 312 313 313 314 314 315 317 318 318 319 321 320 323 324 323 323 322 329 328 331 332 332 332 330 330 328 329 328 330 330 331 332 332 332 333 332 331 331 331 333 334 334 334 333 334 331 330 329 331 334 334 332 331 332 333 333 331 333
295 292 299 302 304 303 302 303 302 303 291 298 298 293 295 302 299 292 291 297 292 290 287 295 296 298 306 307 309 311 312 311 313 313 315 316 318 319 320 321 323 325 325 326 328 329 329 331 332 332 332 332 332 332 332 330 329 330 330 331 331 332 333 332 332 332 334 335 334 333 333 333 332 330 329 331 333 334 334 334 332 332 333 334 333 333
293 293 299 300 298 303 305 305 303 303 303 300 294 297 302 303 301 296 288 290 288 285 286 293 291 294 294 290 306 307 309 310 310 312 314 315 317 317 318 320 321 323 325 325 326 328 328 329 330 331 332 333 332 333 333 331 330 332 331 332 332 332 331 332 332 334 335 334 333 333 333 334 334 332 332 334 333 333 332 332 332 333 332 332 333 332
299 291 297 300 301 302 304 304 301 303 304 299 298 305 296 289 288 296 290 284 284 283 286 291 294 295 296 295 299 302 305 307 309 311 313 314 315 316 318 319 320 321 323 324 325 327 327 328 329 330 331 331 329 332 333 333 333 334 333 332 332 332 332 332 333 334 335 336 336 334 334 335 334 333 331 331 332 333 331 331 331 332 332 333 333 331
302 291 294 301 300 302 302 300 291 297 302 303 303 301 303 299 296 290 291 293 292 285 285 286 293 287 297 301 303 304 307 307 308 310 311 313 315 317 317 318 319 320 321 321 323 323 326 329 329 327 328 329 329 330 332 332 332 333 333 334 333 333 333 333 334 334 334 336 335 335 336 335 333 332 331 332 331 331 330 329 329 331 332 332 332 332
295 301 288 297 301 300 294 298 295 297 295 296 296 296 298 299 303 299 301 294 291 287 287 286 286 292 299 305 304 306 307 308 309 310 311 313 315 317 318 319 319 320 321 322 323 323 324 324 326 326 326 328 332 331 331 333 332 332 333 333 333 332 332 333 334 334 334 335 335 335 333 335 333 332 331 331 330 330 329 330 330 330 331 330 330 331
294 296 290 295 295 294 296 301 300 299 299 298 296 295 296 296 294 290 288 297 294 290 285 286 283 296 304 310 308 308 309 310 312 311 312 314 314 315 316 318 320 319 319 320 322 323 323 324 325 327 327 329 327 326 327 328 328 334 333 333 332 331 331 331 333 333 335 334 336 333 335 335 334 333 331 330 329 330 329 329 329 331 330 330 331 330
301 300 296 291 295 295 299 302 304 303 303 302 300 297 298 298 297 294 286 290 294 294 295 295 289 290 306 309 309 311 311 311 312 312 312 313 314 315 316 317 318 319 318 318 319 322 323 323 324 324 325 325 327 326 325 323 325 327 329 331 333 331 331 333 333 334 335 335 333 334 334 334 334 332 331 329 330 329 328 330 330 329 329 329 330 330
304 295 293 294 298 300 303 303 304 304 303 301 301 302 300 297 298 296 295 296 292 292 290 290 287 292 305 309 311 311 311 311 310 310 311 311 312 313 314 314 314 315 318 319 319 321 322 323 323 323 323 325 326 326 327 327 326 325 327 328 331 331 332 332 332 333 335 333 332 336 336 335 333 332 331 330 330 330 330 329 330 328 328 328 328 326
294 298 295 291 290 292 296 298 300 302 301 298 298 301 301 301 301 301 300 301 291 293 291 289 285 290 304 310 309 310 310 308 306 306 306 306 308 309 311 312 313 314 315 316 317 319 321 322 321 321 321 322 323 324 325 325 325 326 327 329 329 332 332 333 333 332 334 336 335 333 336 336 332 331 330 330 330 330 329 330 328 328 326 327 325 325
297 296 294 288 285 283 282 283 287 291 296 298 299 300 301 300 301 299 292 295 288 292 293 290 290 298 303 307 306 307 308 306 305 305 305 305 305 306 308 310 311 312 312 313 313 313 316 319 320 320 320 321 321 321 322 324 324 324 327 327 331 332 332 332 331 330 332 335 332 334 334 333 333 330 330 329 330 330 330 329 328 326 328 324 323 325
299 302 298 295 292 289 291 294 298 298 301 294 297 300 300 300 299 301 300 293 289 292 291 295 296 297 298 302 303 304 305 303 302 303 304 303 305 305 306 307 308 308 309 310 310 311 313 312 313 316 318 319 320 322 322 323 323 323 324 328 329 332 330 330 331 330 333 333 331 333 334 333 333 329 329 329 329 330 329 328 327 325 324 323 324 324
299 293 297 297 297 298 297 297 298 298 296 297 296 298 300 299 299 298 293 291 299 294 288 296 301 297 299 301 301 300 301 301 301 302 302 303 303 303 304 305 305 306 308 309 308 309 309 310 311 311 312 314 318 320 322 323 325 324 324 326 328 330 330 332 331 331 330 329 326 324 325 323 329 329 330 329 329 329 329 328 326 325 324 324 323 323
299 291 299 299 297 300 299 298 299 298 298 297 299 301 300 300 300 298 297 301 301 292 289 297 301 297 296 296 297 298 298 297 298 299 300 302 302 303 302 301 302 302 304 304 304 305 307 307 308 310 311 311 316 318 320 321 322 324 325 324 326 328 329 331 330 327 325 326 326 326 323 325 326 327 328 327 329 328 328 328 326 326 324 323 323 324
303 295 297 297 295 297 298 299 299 298 298 299 298 299 300 302 302 303 303 302 302 300 299 300 301 295 295 295 297 297 299 298 298 299 301 300 299 300 299 298 299 300 301 302 303 304 304 304 305 307 308 309 310 313 316 316 319 322 323 323 324 325 326 328 327 326 325 326 326 327 327 325 325 324 324 325 325 326 327 327 327 325 323 323 323 324
299 292 295 297 295 290 296 297 299 298 298 297 299 299 301 302 301 301 302 303 303 300 301 299 295 291 294 297 296 298 299 299 297 296 296 298 298 298 297 296 297 297 298 299 301 302 302 302 303 304 305 306 308 310 312 313 316 318 319 321 323 324 325 325 325 324 322 322 324 325 325 325 325 324 325 327 325 325 325 326 326 324 323 324 324 324
301 295 301 299 291 291 296 297 296 297 297 296 295 295 297 298 297 298 295 298 299 297 300 300 296 291 293 296 297 297 296 295 294 294 294 295 296 296 295 295 295 295 296 297 298 299 300 300 301 302 303 304 306 307 309 311 312 315 317 319 321 323 324 323 324 322 321 322 323 323 322 322 323 322 322 320 321 325 325 325 324 323 322 323 322 322
299 297 294 294 290 289 296 297 296 296 295 290 289 291 294 298 299 299 298 298 298 300 298 292 295 296 295 295 294 293 294 293 292 293 294 294 294 294 294 294 295 295 295 296 296 297 298 299 300 301 302 304 305 305 307 309 311 312 314 315 318 320 322 322 323 322 322 321 322 322 323 322 321 320 321 320 321 322 322 323 325 322 321 322 324 324
300 299 294 297 287 289 293 294 296 292 284 284 291 295 296 294 296 297 294 295 297 299 296 299 295 295 295 294 293 291 291 290 291 293 294 294 294 294 294 294 294 294 295 295 295 296 297 299 300 300 301 303 304 306 308 309 311 311 312 312 313 313 314 317 320 322 322 321 321 321 322 322 321 320 320 320 320 321 322 322 322 323 324 324 325 324
297 295 293 295 288 287 291 293 287 282 283 290 296 295 297 297 297 295 295 296 297 299 299 296 295 295 295 293 291 290 291 291 293 293 293 294 294 294 293 293 294 294 294 294 295 296 297 298 298 300 302 303 305 307 308 307 307 308 309 310 311 311 311 312 313 313 315 317 320 321 321 320 319 319 320 322 322 320 320 321 323 324 325 324 324 322
294 294 293 290 290 290 288 288 281 281 288 293 295 296 297 298 296 296 292 294 296 297 297 295 294 293 291 291 291 292 291 292 292 293 293 294 295 294 293 293 294 295 294 294 294 295 296 297 298 299 301 302 303 304 307 307 307 305 306 309 309 310 309 310 309 309 311 313 314 318 321 319 319 319 320 321 321 320 320 321 322 322 323 321 321 322
301 299 292 288 292 285 286 287 285 288 287 288 289 289 291 289 290 290 287 289 293 295 296 294 292 291 291 291 292 292 293 292 289 289 294 294 294 295 294 294 295 295 295 295 296 296 297 298 298 299 300 301 301 303 304 308 308 305 306 306 305 306 308 309 309 309 309 309 311 313 315 315 318 320 319 319 319 318 319 321 321 323 325 324 323 322
300 294 296 289 287 290 286 284 284 284 282 284 288 293 295 295 295 295 293 290 294 295 296 294 292 291 291 292 292 293 295 293 287 286 291 293 295 295 295 295 296 296 296 297 297 297 297 298 299 299 300 299 300 302 303 305 306 304 303 304 304 303 304 305 306 308 308 308 311 312 310 311 312 313 315 315 315 315 315 317 320 321 323 322 321 320
300 300 297 290 289 289 288 285 284 282 281 287 289 292 295 297 297 296 291 287 292 295 295 294 292 292 292 291 292 294 293 288 285 286 291 293 293 294 294 295 295 296 296 296 296 296 296 297 298 297 299 299 299 300 302 302 303 303 302 302 303 303 303 302 303 305 306 307 308 309 310 310 310 310 311 311 312 314 312 313 314 315 315 314 314 316
295 294 293 290 286 289 287 284 281 285 282 288 293 295 296 298 298 293 283 284 291 295 295 295 293 292 292 294 295 294 291 287 285 287 292 294 294 295 294 294 294 295 295 296 297 297 297 298 297 297 297 297 298 301 301 300 301 301 301 301 302 302 302 303 304 305 307 308 308 309 309 310 310 310 310 310 310 311 311 311 311 311 311 312 311 312
290 290 292 287 289 288 285 284 285 284 289 292 293 295 297 300 295 285 282 285 294 295 295 295 294 294 295 294 294 289 290 293 292 292 294 294 294 294 295 295 294 294 294 294 295 296 296 296 296 296 297 297 299 300 301 300 299 299 300 300 301 301 302 303 304 305 307 308 308 309 309 309 310 310 310 310 310 311 313 313 312 311 311 311 310 310
288 288 290 289 287 287 288 286 284 284 288 292 293 295 298 293 285 284 290 297 296 295 296 296 295 296 295 293 291 290 291 293 293 293 293 293 293 294 294 295 295 295 296 295 295 295 295 295 295 296 297 298 298 299 300 300 299 299 298 298 298 300 303 304 305 305 305 306 306 307 308 308 309 310 309 310 310 310 311 312 314 315 314 312 312 310
284 284 286 286 287 288 288 285 284 280 287 293 293 295 294 288 286 291 295 298 298 297 296 296 297 295 293 291 291 291 292 292 292 292 293 293 293 293 293 293 293 294 294 295 295 295 295 294 294 295 296 297 298 298 298 298 298 298 298 297 298 300 302 303 304 304 305 304 304 304 305 306 307 307 308 309 309 309 309 310 311 312 313 312 312 312
290 286 287 287 289 285 283 280 279 284 289 293 292 285 289 291 293 295 295 295 297 298 297 295 295 295 294 292 291 291 292 291 292 292 292 292 292 293 294 294 294 294 294 294 295 295 296 296 295 295 296 298 299 299 298 298 297 297 296 297 299 300 301 301 302 303 303 304 304 304 304 304 305 306 306 307 308 308 308 308 308 308 309 310 310 309
292 289 290 285 288 286 283 284 288 291 292 293 292 292 292 294 296 298 297 296 296 296 297 295 294 294 294 293 292 292 291 292 291 292 291 292 292 292 292 292 293 293 293 294 294 295 295 295 295 295 295 298 299 300 301 300 298 297 295 297 299 299 299 299 299 300 300 301 302 303 304 304 304 305 305 305 306 306 305 306 307 306 307 307 307 307
296 296 296 292 287 291 291 291 292 292 293 293 293 293 293 293 294 296 295 294 295 296 296 294 294 294 294 293 291 291 291 291 292 292 292 292 292 293 293 294 294 294 294 294 294 294 295 296 296 295 296 297 299 299 299 299 298 298 299 299 299 299 300 300 299 298 298 299 300 301 302 302 302 303 304 305 304 304 304 305 304 304 305 305 305 305
295 297 295 290 293 289 281 291 291 291 293 294 292 292 292 292 292 294 293 294 295 296 295 296 294 294 294 294 293 292 292 293 292 292 292 293 292 293 293 293 293 294 294 294 295 295 295 296 295 295 295 295 297 297 298 298 299 299 300 300 300 300 300 300 300 299 299 299 300 300 299 299 300 300 300 301 302 303 303 303 303 303 302 303 303 304
290 298 292 292 290 286 285 290 292 294 294 295 294 292 290 290 292 293 294 294 295 296 297 296 295 293 294 293 294 293 293 293 292 292 292 293 293 293 293 294 294 295 296 296 296 296 296 296 295 295 295 295 296 297 298 298 299 300 301 301 302 302 302 301 301 301 301 301 301 300 300 299 293 297 299 299 299 298 298 299 301 301 298 297 298 300
295 297 288 292 288 289 291 292 292 293 294 294 295 295 294 292 291 291 293 293 294 294 294 295 295 294 294 293 294 293 292 292 293 294 294 294 294 294 294 294 295 295 296 296 296 296 296 296 296 296 296 296 298 298 298 298 299 300 301 301 301 302 301 301 299 300 300 301 301 300 301 301 301 300 301 300 299 297 296 295 297 299 298 296 295 294
294 290 294 292 287 286 286 289 294 287 286 291 293 295 295 296 295 294 294 293 294 293 293 293 293 294 294 295 295 294 293 293 293 294 293 293 294 294 295 295 295 295 296 296 297 297 296 296 297 296 296 297 298 298 298 299 300 301 301 301 301 301 300 300 300 300 299 299 299 300 300 301 300 300 300 300 300 299 294 288 289 293 296 295 290 287
293 294 294 288 288 286 291 294 295 294 293 293 294 297 298 299 298 296 294 293 294 295 295 294 292 292 293 294 294 293 292 293 294 295 294 294 294 295 295 295 295 295 295 297 297 297 297 297 297 297 297 297 298 298 298 299 300 300 301 301 301 301 301 300 299 298 299 298 297 296 299 299 299 300 300 300 300 301 297 296 293 288 288 289 289 288
Wind_Speed
8 10 11 11 11 12 14 15 14 16 6 7 10 6 7 8 10 5 2 6 3 6 9 9 10 11 11 10 11 13 11 9 11 12 12 11 10 12 13 12 8 8 10 9 12 13 14 11 10 9 10 9 9 10 11 12 13 15 14 11 11 10 9 9 8 8 7 8 7 6 10 8 8 6 6 5 4 4 1 2 3 4 6 6 6 6
9 10 11 13 14 13 12 13 13 15 2 9 9 8 9 10 9 11 10 5 3 6 7 8 10 12 12 12 12 13 9 11 12 13 14 15 15 14 15 14 13 12 9 6 8 11 12 10 12 10 9 10 11 11 13 13 14 14 13 14 12 9 10 10 8 9 9 8 8 8 8 8 7 6 5 6 4 2 3 4 5 6 5 5 6 6
9 11 12 13 12 11 8 8 11 10 6 8 10 9 9 9 11 6 3 6 5 6 8 11 12 11 12 12 12 14 14 9 11 12 13 15 16 14 14 15 13 9 11 11 10 11 12 12 14 12 10 10 11 12 12 12 13 13 14 13 12 11 12 11 9 7 8 8 8 9 8 7 7 6 3 3 3 1 1 4 4 8 7 7 6 6
9 11 16 13 10 8 6 6 6 7 8 8 10 10 10 10 12 11 6 6 7 6 7 7 10 8 8 9 12 14 16 12 13 14 14 15 16 15 16 14 13 11 13 20 18 13 13 15 14 13 11 11 10 10 11 11 12 11 12 13 15 14 13 11 9 10 9 8 8 6 5 3 3 4 5 4 5 4 2 7 11 6 6 7 6 6
10 7 11 15 8 8 10 9 9 8 9 11 12 11 11 13 12 9 4 7 4 8 9 12 11 11 11 13 13 13 15 14 12 13 13 12 15 16 15 16 13 15 16 15 17 13 11 14 16 13 12 11 10 10 10 10 10 9 12 12 13 11 11 10 10 12 9 8 6 4 4 7 6 5 3 4 5 4 3 6 7 6 7 6 5 5
13 6 3 6 9 9 10 10 11 9 10 10 13 14 13 12 16 4 6 10 8 10 12 12 10 12 12 18 17 13 13 16 13 13 13 13 13 15 17 16 13 14 13 12 13 15 13 15 14 13 12 10 9 10 9 10 10 10 10 10 9 5 5 5 7 9 9 7 8 8 7 6 6 6 7 7 6 5 4 5 8 7 6 6 5 4
11 7 9 8 8 10 12 11 11 12 10 10 9 16 17 16 12 11 11 10 9 9 7 10 9 8 9 11 11 12 13 13 10 13 14 14 14 14 15 15 15 12 13 11 11 11 9 11 11 12 9 10 11 11 11 10 10 11 8 8 8 4 6 7 6 10 7 7 8 8 9 8 7 6 6 4 3 2 3 8 6 5 5 5 5 4
12 7 6 9 10 11 11 11 11 12 10 9 8 3 7 10 11 12 13 11 9 12 3 5 8 10 9 10 7 10 12 11 14 15 13 12 12 13 14 16 15 12 16 11 10 9 13 11 11 12 11 12 15 14 12 9 9 9 8 7 9 8 6 4 4 4 4 6 6 6 3 3 3 1 4 3 3 4 6 5 5 5 5 5 5 4
11 10 8 9 11 10 11 10 9 12 10 9 4 5 8 10 11 12 11 10 11 10 12 10 12 11 11 11 11 11 12 10 14 10 8 6 7 8 11 14 14 17 14 13 11 12 18 21 19 14 13 13 12 10 9 9 8 7 5 9 7 7 11 8 6 5 6 3 4 4 5 5 4 3 3 3 3 4 3 5 5 5 5 5 5 5
9 12 11 10 9 10 10 9 11 11 11 14 6 5 6 7 8 10 10 11 11 11 12 12 8 10 9 9 10 8 11 12 5 7 5 3 4 7 12 13 14 5 12 12 13 16 18 19 15 14 11 5 3 9 9 8 6 6 9 9 5 9 9 9 8 5 4 3 2 5 7 9 7 5 4 2 1 2 3 4 6 5 5 5 5 5
1 3 3 9 11 9 8 9 7 8 12 3 5 5 9 10 10 9 10 10 10 11 13 13 16 13 11 7 1 3 3 5 7 5 2 0 5 6 9 15 14 7 12 8 10 12 13 13 11 11 11 9 8 4 5 8 12 9 8 10 12 11 9 9 10 9 5 5 10 9 8 10 9 8 6 4 2 3 4 7 7 7 6 6 5 5
10 9 7 8 9 8 10 11 12 10 11 9 7 8 8 10 10 9 9 10 9 10 10 13 16 13 12 3 5 2 5 4 1 3 1 3 5 4 5 5 11 4 9 13 14 14 12 11 9 11 13 12 11 9 8 11 9 8 10 10 10 11 9 11 11 13 13 8 6 8 9 8 8 8 5 5 5 6 8 8 7 6 6 6 6 5
14 11 8 11 11 15 12 11 10 11 10 10 9 9 10 8 5 8 8 10 10 9 11 11 12 11 11 3 8 5 2 3 4 3 3 2 3 3 2 7 3 5 3 6 8 9 10 10 10 10 11 11 10 8 12 10 8 9 9 12 13 14 12 12 9 10 11 12 11 9 8 9 8 7 6 3 2 5 7 6 6 6 6 5 5 4
11 12 13 11 11 13 12 11 9 11 12 12 11 10 11 9 8 8 9 7 9 12 12 8 3 9 3 5 2 4 4 4 4 4 2 4 3 1 2 5 5 4 4 4 6 8 8 8 7 11 10 9 10 10 8 6 7 8 10 14 15 15 15 13 10 10 10 10 10 10 9 9 8 6 5 3 4 11 7 6 6 6 6 5 6 5
9 12 14 13 10 14 14 13 11 8 11 13 12 12 11 9 7 8 8 8 9 7 8 9 7 6 13 3 7 6 4 4 4 4 5 2 1 1 2 2 3 7 5 3 5 7 6 6 9 7 8 9 10 12 12 9 10 9 11 11 13 12 12 13 12 10 12 11 13 11 10 11 9 6 7 3 10 9 7 7 7 6 6 6 6 6
14 10 9 16 10 15 16 16 15 10 10 11 12 11 12 10 7 10 1 6 3 5 7 7 7 1 4 5 5 3 3 4 4 5 4 2 2 1 2 4 3 5 7 6 8 3 4 6 6 6 7 11 14 14 12 12 9 9 11 12 13 12 12 13 13 12 12 13 12 14 13 11 7 6 7 9 11 6 6 7 6 6 6 5 6 6
9 10 7 13 16 13 16 14 14 11 9 8 12 13 11 8 10 7 7 11 2 6 7 3 7 6 9 7 6 4 7 6 4 5 2 4 4 3 3 4 2 2 3 1 1 4 4 5 6 6 7 9 13 12 13 12 12 11 12 13 13 13 12 12 13 14 12 13 13 14 12 10 9 7 9 9 8 7 6 6 6 6 5 6 5 6
8 6 9 11 15 11 10 14 14 14 11 5 9 10 10 10 9 7 6 3 6 9 7 10 12 7 8 3 3 6 7 6 5 5 5 4 4 4 6 7 7 5 5 3 1 1 1 2 4 4 5 7 8 9 12 13 11 10 11 13 13 14 13 12 14 14 14 14 12 12 13 13 11 10 10 8 7 7 7 7 6 6 5 6 5 6
8 8 8 11 10 12 12 12 14 16 16 12 7 1 10 7 10 8 4 9 7 7 5 11 11 5 3 5 3 3 4 3 4 3 3 4 5 6 7 8 7 6 6 5 3 2 1 1 4 4 3 4 6 7 9 11 10 11 11 12 13 14 14 15 13 13 12 12 9 9 11 12 12 11 10 9 9 8 8 8 7 7 6 7 6 6
4 7 7 10 13 11 11 9 11 12 15 17 12 9 7 9 8 6 8 9 7 7 7 7 11 1 3 4 6 5 6 3 5 4 3 5 6 5 5 6 4 5 5 5 5 5 5 5 4 3 5 5 4 4 9 10 9 12 11 12 13 13 14 15 14 14 15 12 11 12 11 10 12 12 11 10 10 8 9 9 9 7 7 7 7 6
4 5 7 7 11 8 10 10 12 11 12 13 13 11 9 9 5 7 2 7 7 6 7 6 6 5 3 2 6 3 6 4 3 6 5 4 7 8 9 8 7 8 8 7 7 8 7 3 3 5 4 5 1 3 4 3 6 10 10 12 13 15 17 16 15 15 13 10 11 13 11 10 13 12 10 11 10 9 9 7 8 7 6 7 6 7
4 5 8 6 10 11 10 11 14 14 14 12 12 12 11 11 11 11 8 8 8 6 4 6 2 4 4 1 6 6 5 4 6 7 7 8 8 9 7 9 9 7 8 9 9 8 8 9 7 6 6 4 3 1 3 1 8 5 6 9 12 14 15 16 16 14 13 11 8 12 12 14 12 11 11 11 10 9 9 8 9 7 7 7 6 7
7 5 9 9 8 9 12 11 11 6 6 11 12 13 14 11 9 8 10 7 10 11 14 9 5 3 4 3 4 9 9 10 9 6 9 9 9 8 9 8 9 9 9 9 8 8 8 7 6 4 3 3 2 1 4 3 3 7 8 7 10 13 15 15 15 14 12 12 10 11 12 12 12 12 12 11 9 10 10 9 8 8 7 6 6 6
7 5 9 11 10 9 4 4 3 7 9 11 9 9 10 13 13 12 5 3 5 4 7 8 4 3 1 3 7 7 9 10 10 11 9 8 9 10 10 9 9 9 11 12 11 8 7 6 5 6 5 4 5 5 3 2 2 1 5 4 6 12 14 15 13 13 13 12 10 10 12 11 12 13 12 11 9 10 10 9 7 8 7 6 6 6
6 8 9 6 8 10 8 7 10 9 10 10 10 10 12 10 10 6 7 5 4 4 7 9 1 4 7 5 7 7 7 11 11 10 10 8 8 8 8 8 8 9 10 9 10 10 6 7 8 8 7 6 5 5 6 3 2 2 6 5 9 8 13 12 12 13 11 12 14 13 12 12 14 12 13 12 10 11 10 10 9 6 6 6 6 7
6 6 10 10 10 10 10 11 9 9 12 10 12 13 9 12 10 9 7 6 8 6 10 8 1 6 6 5 6 6 9 11 10 10 9 9 9 8 7 7 8 8 8 10 11 12 12 9 9 8 8 7 6 6 6 5 5 8 4 6 6 7 9 11 10 12 10 10 11 10 12 12 12 13 12 12 11 11 10 10 9 9 5 7 7 6
6 3 5 8 7 6 2 6 9 7 7 11 13 11 7 7 11 12 8 6 7 3 7 6 7 8 5 5 6 5 9 8 8 9 8 8 8 7 8 8 8 9 9 10 10 9 9 11 13 13 11 7 4 5 5 4 3 3 7 1 4 4 7 8 9 10 8 6 7 5 7 8 12 11 11 11 11 10 10 9 9 9 8 7 7 7
6 7 11 12 11 6 4 6 8 11 7 11 11 10 6 5 8 11 7 6 5 1 3 6 8 10 8 9 7 8 8 9 8 8 8 7 7 7 8 8 10 9 9 8 10 10 10 10 11 12 11 10 9 8 4 3 3 3 5 5 3 3 4 4 7 8 6 8 7 6 9 10 9 5 10 9 10 10 9 9 8 8 7 7 7 7
2 5 4 10 8 10 6 0 8 8 4 7 6 2 5 8 11 12 10 3 2 6 3 7 9 10 7 7 7 8 8 8 8 8 8 7 7 8 9 10 10 9 9 10 10 10 11 11 11 11 12 11 10 9 9 7 3 3 3 4 4 2 5 5 6 10 8 6 10 10 8 4 6 7 2 9 8 8 9 9 8 7 7 7 7 6
4 3 2 2 8 4 4 3 3 5 4 3 4 2 2 3 4 4 4 4 1 2 7 11 12 11 8 7 7 7 7 8 7 7 6 8 9 9 10 10 10 9 10 10 10 10 11 11 11 11 12 13 13 11 10 9 8 4 3 4 5 6 7 7 9 11 10 10 11 11 10 8 5 6 6 1 8 9 8 8 8 8 7 7 6 6
4 3 12 9 6 1 5 4 4 4 10 6 9 9 6 4 7 7 5 8 8 10 11 13 13 8 5 6 7 6 6 7 7 9 9 9 9 9 9 9 9 9 10 10 10 10 10 11 12 12 12 12 12 11 8 9 8 8 10 9 8 8 7 8 6 11 12 12 12 11 10 9 8 7 7 3 8 8 9 7 7 8 8 7 6 6
3 5 3 6 7 7 6 6 6 5 11 6 7 12 11 6 4 6 5 7 4 4 7 8 5 4 5 6 8 8 8 9 9 9 9 8 9 9 9 9 9 9 9 10 10 10 11 11 12 12 12 11 10 10 9 8 8 8 10 9 9 8 9 9 9 11 11 10 10 10 9 9 9 8 6 10 10 8 6 6 8 8 8 8 8 6
2 5 4 4 7 8 2 7 7 6 3 4 4 8 9 5 4 6 8 10 8 6 5 2 3 9 9 7 8 8 8 9 9 8 7 9 9 9 9 9 9 9 9 10 10 11 11 10 10 10 11 11 9 9 10 8 9 10 10 11 10 10 10 9 9 9 10 10 11 8 7 9 9 7 6 8 8 8 8 8 7 7 7 8 7 6
1 4 2 2 4 1 2 3 5 5 9 1 5 4 7 8 8 4 8 8 10 9 7 8 9 10 9 7 7 8 9 9 9 9 8 7 7 8 9 10 10 9 10 11 11 11 11 10 9 9 10 10 9 9 8 7 8 9 10 11 11 11 11 10 10 8 8 9 9 8 8 8 8 8 7 8 8 6 7 7 7 6 6 6 6 6
5 4 3 1 1 1 1 3 5 10 1 4 2 7 4 6 7 9 7 8 8 9 10 11 11 9 9 9 10 9 12 12 12 12 11 9 9 8 9 10 10 10 11 11 12 11 11 10 10 10 10 9 9 9 8 9 10 10 11 11 12 10 10 10 11 12 10 8 6 8 9 9 9 10 9 8 7 7 5 4 4 5 6 6 6 5
3 3 1 1 2 1 3 6 5 2 4 4 5 8 6 1 7 4 8 9 8 7 6 9 10 10 11 11 10 10 12 13 14 14 12 11 10 9 10 10 11 10 11 10 11 10 11 11 11 12 11 10 9 9 7 7 8 9 10 11 12 10 11 11 11 11 10 10 9 9 7 7 9 10 9 9 8 7 6 4 4 5 6 5 6 5
2 1 2 1 5 4 2 3 4 5 5 5 3 7 8 5 6 4 2 5 6 4 3 8 10 10 10 10 10 10 10 9 11 11 12 12 11 10 10 10 10 11 9 9 9 9 9 10 10 11 11 11 11 11 9 5 6 7 8 9 11 13 11 10 10 10 9 9 10 9 9 8 7 7 8 8 9 9 6 4 4 4 5 6 5 5
6 1 4 1 5 5 6 7 6 6 3 5 4 4 3 5 3 4 1 4 4 4 3 7 9 10 11 10 10 10 8 5 7 6 7 9 11 11 11 10 9 10 10 9 10 10 11 10 10 11 10 12 13 14 11 8 8 9 11 10 11 13 13 13 11 10 8 8 9 7 9 9 10 11 10 9 9 8 6 6 5 4 2 3 5 6
2 3 2 4 3 3 2 5 4 3 5 4 6 6 4 3 3 2 3 2 3 2 4 6 8 9 9 10 9 6 4 1 4 4 5 7 8 9 9 9 9 9 10 10 11 11 12 11 11 12 14 14 15 13 12 13 11 11 12 12 13 14 14 13 12 11 11 10 10 9 8 9 10 9 9 9 8 6 7 6 5 6 7 7 7 5
2 2 4 6 5 5 1 1 4 4 4 8 8 8 6 2 2 3 3 3 3 4 4 6 7 8 8 9 5 3 4 3 6 6 6 7 8 8 9 9 10 11 11 11 11 10 10 11 13 15 16 16 15 12 12 12 12 12 12 12 12 13 13 12 11 11 11 11 10 10 10 10 10 10 10 11 8 7 8 6 6 7 7 7 7 6
1 2 0 4 3 7 11 7 5 5 4 11 11 10 7 3 2 3 3 4 1 2 5 6 7 8 8 5 6 4 8 8 11 9 6 7 7 8 8 8 9 9 11 12 11 11 10 11 11 12 13 12 13 13 11 10 10 11 12 11 12 14 12 10 10 10 11 11 11 11 11 10 11 11 10 9 8 7 6 6 7 7 7 7 7 6
3 6 3 3 5 1 1 7 7 6 4 12 14 11 6 5 1 4 3 3 4 4 5 7 9 7 7 9 8 9 10 12 12 9 8 7 8 8 7 7 8 9 9 9 10 10 9 10 11 12 12 12 12 12 11 10 10 10 11 11 13 12 10 9 10 10 10 11 11 11 11 11 10 10 9 9 7 7 7 5 4 5 7 6 6 7
3 5 4 5 2 1 4 6 4 5 6 16 16 3 12 3 4 4 7 4 6 6 7 8 7 8 10 10 12 12 12 12 11 9 9 8 8 8 8 7 8 8 8 8 8 8 7 8 9 10 10 9 10 10 10 10 10 10 11 13 12 10 10 10 10 10 10 11 11 11 11 10 11 9 7 7 8 7 6 5 5 5 5 5 4 4
5 2 3 5 6 4 7 6 4 4 8 11 11 6 6 5 6 6 7 4 6 8 8 8 7 8 11 13 12 13 12 12 11 9 8 8 7 8 8 8 8 7 7 7 7 6 7 8 8 9 9 7 6 7 8 10 10 10 11 12 9 9 9 10 10 10 10 10 10 9 9 9 9 8 7 8 7 7 7 6 4 4 4 3 2 4
10 9 6 7 7 6 6 5 4 4 6 7 8 7 7 8 8 8 10 9 8 8 9 9 10 11 12 14 13 13 12 10 10 8 8 7 7 7 7 8 7 7 7 7 6 6 7 8 9 8 8 7 7 6 4 4 6 8 10 8 7 8 8 9 9 9 10 10 9 9 8 9 8 8 7 7 7 6 6 6 5 4 3 2 3 2
8 11 12 13 14 16 14 9 5 6 7 8 9 8 9 10 11 11 12 11 11 10 8 10 11 12 12 11 12 10 10 10 10 8 7 6 7 7 7 7 7 7 6 6 6 6 6 7 8 8 7 6 5 5 5 6 6 7 6 5 5 5 6 7 7 7 8 8 8 9 8 8 8 9 8 7 7 7 6 6 5 5 4 4 3 3
8 5 7 6 6 3 8 10 12 12 10 9 9 10 10 10 10 10 12 12 12 10 11 10 12 12 12 10 11 11 10 9 9 8 6 6 6 6 6 6 6 5 4 5 5 6 5 6 7 8 8 8 8 8 7 8 7 7 6 7 7 7 7 7 7 7 7 7 7 8 8 8 6 7 7 8 7 7 7 7 6 5 6 6 5 4
10 11 14 14 15 10 8 12 14 15 14 12 8 8 9 11 11 11 10 11 11 10 9 8 9 11 10 11 11 10 10 10 9 7 6 6 5 5 5 5 4 4 5 5 5 5 6 6 6 7 7 6 5 5 5 5 7 8 8 7 7 7 8 9 9 9 9 9 8 7 7 7 5 6 7 7 8 8 7 7 7 7 7 7 7 7
5 3 6 9 12 12 13 13 14 16 17 16 13 11 9 9 11 13 12 12 12 13 12 13 11 10 10 11 11 9 9 7 7 7 7 6 6 5 5 4 4 5 4 4 4 4 5 5 6 6 6 6 5 5 5 6 6 7 8 8 8 8 8 8 9 9 9 8 7 7 7 7 7 7 6 6 8 8 8 7 7 6 7 8 6 6
8 11 12 10 10 7 6 4 0 6 9 11 14 13 13 14 15 15 14 13 12 12 11 12 11 9 10 10 8 8 9 7 6 7 7 7 6 5 5 4 4 5 5 4 5 5 5 5 5 6 7 6 6 6 6 7 7 8 8 8 8 8 8 8 7 8 8 8 7 7 6 6 6 6 6 5 5 7 7 8 9 8 6 5 7 7
7 4 4 6 8 9 11 12 13 13 13 12 12 13 13 13 14 15 14 13 11 10 10 10 10 9 9 9 8 9 9 7 6 7 6 4 4 4 4 3 3 3 3 4 4 4 4 4 4 5 5 5 6 6 6 7 8 8 9 9 9 9 8 7 7 7 7 7 7 7 5 6 5 5 5 5 5 4 5 6 7 9 9 8 5 6
Wind_Direction
168 217 205 212 220 213 217 227 236 243 335 288 317 307 245 251 258 128 294 95 150 261 247 264 254 259 268 255 236 236 191 202 224 208 208 218 226 223 215 211 182 168 174 199 208 199 198 180 168 174 172 171 166 168 173 175 169 152 164 167 169 174 170 161 152 159 156 170 195 205 204 201 183 174 166 184 176 215 37 176 251 235 207 190 189 178
202 223 224 221 225 231 219 223 246 268 2 258 259 253 241 237 252 235 186 166 213 255 259 244 249 249 247 245 247 259 212 198 218 221 211 220 220 227 223 205 196 187 135 217 212 200 189 181 176 176 177 180 174 174 181 181 178 162 170 167 160 173 171 177 176 163 168 181 189 187 206 197 172 162 167 190 150 234 161 225 210 218 240 206 177 183
211 226 228 230 227 233 244 238 228 243 237 243 253 251 257 240 248 123 156 152 234 221 255 249 253 249 239 238 245 245 247 203 223 227 212 219 227 224 226 216 173 168 155 170 243 201 188 188 180 183 184 181 184 177 181 183 183 179 169 168 160 174 173 181 174 172 184 187 200 199 193 207 158 172 123 117 93 325 294 244 233 240 204 204 177 188
219 223 234 233 225 222 218 247 235 223 241 251 231 241 245 247 229 233 180 201 194 245 273 276 278 273 268 262 252 241 244 227 219 227 220 211 226 229 230 228 158 194 194 163 201 198 200 190 184 187 187 182 183 184 188 184 191 185 183 173 173 174 181 171 175 194 189 196 196 179 174 185 106 127 129 121 125 183 182 198 232 179 218 184 184 185
227 242 197 216 210 193 212 209 222 224 230 220 246 247 240 237 242 244 213 190 205 230 246 266 263 257 249 244 242 236 239 240 217 223 228 220 214 227 236 245 182 175 202 186 178 192 202 195 187 188 186 184 187 193 189 196 199 195 192 183 177 174 169 176 192 189 189 175 168 153 140 78 49 102 122 128 173 188 186 220 234 179 197 184 182 188
250 241 66 227 178 195 218 220 213 230 237 224 217 240 253 262 282 253 257 273 241 249 224 227 255 249 237 234 235 233 216 223 222 224 221 228 227 221 226 232 231 191 178 189 172 175 206 206 187 184 186 186 192 198 197 200 205 202 203 194 171 153 153 141 176 185 180 169 177 190 182 158 176 167 176 178 179 181 149 229 226 188 184 176 179 174
242 155 180 207 213 220 224 229 208 212 237 240 212 210 228 251 261 271 262 257 261 260 297 199 246 269 259 256 232 231 233 200 208 236 230 222 224 228 229 228 229 202 176 171 158 180 146 259 187 173 176 192 196 198 197 199 206 205 198 186 135 196 152 170 188 179 190 175 197 176 186 166 184 184 170 162 155 142 169 215 192 177 175 176 164 173
236 192 197 215 223 227 221 221 213 204 226 234 253 226 231 231 240 243 251 252 260 277 169 195 245 274 264 252 218 222 236 215 216 220 220 228 226 228 230 231 228 214 164 174 168 175 161 204 221 175 184 202 202 196 192 188 191 199 197 116 79 68 38 29 182 214 200 192 181 171 170 43 58 252 138 176 177 169 201 211 200 165 173 170 156 171
194 218 210 211 218 224 222 222 205 203 225 232 146 236 235 245 245 247 241 242 253 254 260 220 217 248 258 262 250 205 217 208 237 199 182 234 268 266 253 247 231 229 164 166 155 180 186 194 199 176 194 202 197 194 193 190 180 181 138 109 122 154 163 181 160 193 245 110 109 112 119 154 172 180 138 144 169 208 180 217 190 172 167 162 153 160
173 222 204 224 213 219 227 208 223 201 220 244 254 222 263 262 261 249 243 247 242 245 251 258 247 258 264 264 256 222 217 220 199 141 188 216 267 271 290 282 261 159 140 160 185 187 191 194 178 180 187 188 206 200 199 181 143 76 81 91 222 208 180 164 147 136 107 161 143 166 173 167 163 170 147 99 214 232 206 220 184 171 162 154 150 149
131 186 286 216 217 231 217 218 218 177 231 276 316 238 220 234 237 234 250 258 254 239 240 245 254 249 262 252 25 324 29 13 134 172 174 223 278 263 230 250 267 210 149 158 190 202 203 189 172 177 175 172 180 151 109 108 83 95 123 162 200 218 185 154 138 120 127 143 153 169 170 165 162 171 162 165 213 226 247 195 178 177 165 151 144 145
185 174 191 226 243 235 236 224 212 215 214 221 221 228 238 222 225 233 228 231 246 250 249 239 248 240 253 237 42 99 122 68 33 86 294 284 266 232 241 225 241 205 154 181 186 193 186 174 172 185 186 179 180 154 123 87 118 160 179 163 195 218 191 155 143 140 137 171 153 149 160 171 166 161 162 161 201 220 210 189 174 177 159 157 143 149
231 207 214 209 203 236 210 239 206 204 210 223 221 231 232 223 207 226 219 222 226 243 242 252 248 232 231 265 145 73 89 83 41 8 51 327 253 229 270 247 216 116 185 182 184 181 177 169 165 188 185 183 168 107 109 149 177 159 162 168 189 206 185 171 171 152 147 147 148 154 164 167 166 163 145 155 234 241 209 183 182 165 164 158 147 162
220 224 199 204 188 206 228 210 200 194 208 214 217 217 223 224 213 231 229 229 237 228 241 248 228 252 253 83 105 156 102 117 80 86 106 57 355 281 218 222 148 140 181 188 190 190 185 175 195 185 180 160 119 105 104 153 186 166 166 183 198 205 201 185 169 143 152 141 145 157 157 165 163 153 129 133 217 232 191 186 172 170 160 158 154 160
218 209 200 198 199 177 216 224 216 213 196 212 218 221 226 236 221 223 238 240 236 250 231 215 238 225 241 80 100 94 109 86 126 78 73 94 100 204 204 217 180 151 203 220 232 202 194 192 200 198 168 157 133 154 155 168 169 172 168 185 199 202 199 190 174 151 151 151 157 159 155 162 166 150 124 144 228 215 188 176 171 173 164 160 159 161
237 232 205 196 222 175 208 215 242 228 212 207 217 228 237 227 234 261 328 300 354 316 235 197 242 357 56 146 81 92 80 113 95 100 101 88 116 157 213 185 196 173 150 195 230 202 166 195 176 172 164 142 148 151 157 163 166 173 167 181 196 195 190 180 168 156 162 163 161 162 157 161 149 143 141 197 212 191 182 175 169 171 163 153 155 153
222 233 207 174 220 202 202 210 220 242 238 184 203 218 227 236 238 234 247 248 198 243 267 260 217 145 152 149 135 117 99 65 63 97 103 105 111 123 95 92 120 68 98 177 140 117 149 143 177 170 162 150 158 161 160 171 171 176 169 178 186 186 180 169 162 160 168 167 162 158 153 148 161 161 183 203 184 177 169 161 173 161 166 145 157 152
250 239 196 187 200 209 218 207 219 219 244 254 228 215 224 232 249 254 264 199 219 240 246 242 251 178 202 181 164 111 95 79 69 74 99 98 100 98 78 60 44 51 44 32 79 118 175 162 165 173 154 158 160 168 157 163 175 184 180 185 183 178 176 165 164 167 166 166 166 162 156 161 164 174 186 172 170 162 166 158 161 159 158 153 153 151
233 233 212 197 220 193 209 221 217 218 220 240 239 316 237 190 216 216 233 240 241 235 248 247 239 258 35 105 165 148 124 124 110 112 107 98 101 96 87 69 56 45 43 43 41 25 5 119 98 106 155 155 183 169 161 157 179 180 185 178 181 174 174 165 166 165 161 162 164 162 163 161 163 164 159 161 165 158 160 163 155 158 153 152 147 161
209 252 205 199 227 190 189 201 222 205 202 227 244 243 245 278 247 226 215 242 254 242 233 239 244 169 329 60 53 122 121 171 154 130 112 106 102 98 96 84 75 66 54 25 35 48 50 60 67 21 355 308 139 203 169 163 178 182 173 174 175 162 161 167 168 165 161 163 161 164 160 162 164 158 154 155 159 158 159 174 151 157 151 155 156 158
218 218 254 176 216 174 201 195 220 208 199 194 220 233 215 229 265 260 311 257 244 250 241 248 227 102 88 85 143 152 104 103 158 139 118 79 73 72 75 78 57 46 37 42 38 45 58 69 86 120 196 244 159 164 191 200 192 184 167 175 170 168 165 169 168 166 160 162 164 161 159 180 161 152 154 152 155 158 158 158 149 159 156 152 160 156
223 212 234 240 209 207 219 197 223 218 206 204 209 217 225 219 220 223 216 214 248 268 291 252 253 121 84 309 119 130 106 135 120 103 104 92 80 63 64 60 62 62 46 36 27 25 40 37 39 59 61 57 122 239 310 56 281 231 184 198 172 167 169 169 170 168 161 157 154 164 179 165 152 150 150 149 152 155 155 157 160 160 156 160 157 166
238 225 230 218 215 229 234 212 214 240 256 241 213 215 219 234 237 221 244 209 217 221 247 240 134 118 49 37 73 83 87 64 46 82 91 77 70 68 60 56 50 47 45 34 22 15 28 37 26 47 49 60 63 100 170 172 211 296 305 239 173 171 169 172 168 168 163 149 162 173 176 161 154 150 156 149 149 157 157 158 164 164 163 169 161 171
176 232 228 230 225 240 158 162 194 230 235 232 238 261 224 223 222 244 274 346 272 322 321 268 218 94 285 87 80 88 80 69 57 47 56 60 49 42 39 35 37 32 32 25 11 9 27 33 26 23 48 52 26 37 32 32 44 221 276 252 222 172 170 165 167 166 161 149 162 185 160 158 154 155 151 149 151 154 158 153 157 172 163 167 167 166
195 199 243 218 222 229 209 218 207 207 224 231 233 218 238 241 249 239 209 200 257 189 219 276 291 138 132 111 110 111 92 75 67 56 40 46 44 40 36 34 33 33 33 25 22 12 24 34 29 28 34 26 13 16 13 333 4 320 225 211 205 181 171 166 167 168 164 158 158 172 163 158 156 155 154 150 149 153 157 155 166 157 173 162 170 161
241 214 215 223 221 218 213 216 212 204 203 220 229 236 237 253 250 240 237 231 251 227 257 266 109 84 104 118 114 118 107 80 74 72 64 52 45 39 36 38 34 35 30 31 25 17 18 23 20 27 24 25 17 1 337 335 7 349 359 238 239 170 173 169 173 169 165 155 156 167 162 161 159 155 155 151 151 154 154 157 155 163 162 166 164 155
253 260 272 273 274 242 348 305 300 296 298 232 214 209 214 257 274 266 266 257 251 302 245 292 151 142 134 138 128 102 78 86 79 70 65 59 51 45 43 39 37 33 31 31 29 22 25 22 16 13 20 28 25 360 6 3 31 16 316 286 227 180 170 172 164 163 147 135 133 148 149 159 157 155 154 151 151 152 154 153 152 158 156 166 154 155
258 246 226 238 255 284 295 325 342 315 287 298 249 206 190 224 254 264 247 247 305 201 229 27 122 138 153 113 97 81 74 68 66 65 68 63 55 47 45 43 38 36 35 34 30 26 22 19 19 14 7 13 18 15 351 43 36 56 338 7 35 150 160 161 161 149 117 115 98 51 32 22 353 153 146 148 149 154 149 146 150 154 149 155 149 161
296 269 237 242 287 253 236 181 19 335 331 260 259 114 196 193 215 218 226 242 285 247 238 169 149 125 97 75 68 64 69 71 61 58 56 63 64 56 50 45 42 39 35 32 29 28 24 22 21 18 18 9 11 19 18 13 51 56 36 47 51 56 145 161 152 120 130 116 99 104 111 90 89 341 121 141 146 155 150 148 146 142 141 143 148 161
277 237 360 339 228 343 345 20 87 343 299 185 115 185 96 31 45 20 54 4 323 46 110 151 118 101 96 87 76 72 69 71 66 57 60 58 56 54 50 45 41 37 32 29 29 27 27 21 18 21 23 16 9 12 23 19 6 40 54 54 36 40 12 40 53 99 101 108 123 117 109 120 94 89 17 183 151 151 147 147 139 135 137 141 141 143
283 176 167 222 224 162 291 285 213 154 243 114 43 35 30 71 66 42 55 64 82 89 106 113 113 95 74 94 99 87 76 77 70 56 49 45 49 53 51 48 40 34 29 26 26 27 26 24 27 28 29 24 18 18 28 27 20 39 43 39 48 50 73 93 84 78 91 93 102 103 107 94 72 44 40 52 151 148 149 141 140 139 136 130 125 122
304 275 268 256 246 228 220 246 248 199 238 103 54 29 17 1 40 35 49 16 358 128 143 137 135 135 125 117 103 93 84 71 63 56 50 44 45 49 53 48 41 33 29 25 22 23 21 23 25 27 31 31 20 19 21 25 23 39 58 60 53 60 66 69 76 95 98 96 93 92 90 87 79 68 56 61 52 57 73 137 144 132 125 125 128 124
258 277 261 250 248 251 221 214 232 252 308 198 57 26 5 2 51 109 63 35 20 319 168 178 68 105 135 129 115 92 85 74 59 47 54 53 48 50 52 50 43 37 32 28 27 22 21 23 23 17 23 34 22 19 20 23 40 47 57 56 56 51 59 88 100 103 104 106 110 108 103 95 95 91 78 75 67 53 54 56 71 93 108 101 84 91
4 274 261 329 260 51 121 193 200 213 223 212 41 8 9 24 348 32 57 40 35 36 55 62 102 117 125 132 113 103 80 68 70 60 50 46 54 55 55 54 51 48 43 40 37 29 21 21 20 17 20 21 21 14 2 14 37 50 50 49 44 43 45 44 54 60 83 102 108 108 104 101 98 96 89 88 87 65 43 52 58 67 72 74 68 70
167 197 246 74 266 221 171 185 201 220 149 96 83 24 18 29 50 79 79 57 57 70 85 95 108 113 100 92 92 86 85 80 68 63 56 53 58 61 60 58 54 49 47 41 38 35 24 17 18 19 26 26 25 16 9 23 47 59 60 60 61 48 43 42 48 52 40 41 66 114 125 129 122 118 113 110 108 101 84 63 66 71 76 75 74 69
181 191 116 65 252 157 179 195 221 119 73 55 59 36 3 94 19 120 85 53 43 63 94 107 107 105 107 110 109 106 100 89 73 58 60 61 59 61 62 61 59 55 51 40 39 32 26 17 16 23 29 27 24 13 14 34 32 50 66 74 70 60 56 55 52 48 39 46 44 52 69 115 126 125 126 124 107 97 97 87 84 80 80 84 80 74
332 131 113 225 184 204 184 173 65 124 124 39 40 6 6 5 357 6 57 70 36 17 84 121 122 118 117 119 122 127 122 101 72 53 48 65 68 63 62 60 56 57 53 44 35 29 16 5 5 23 37 35 27 18 13 32 66 65 56 50 76 81 71 69 67 62 55 47 45 54 67 57 74 104 109 107 107 100 95 98 91 111 118 116 114 118
129 204 105 205 198 212 138 128 148 198 124 74 31 2 333 320 320 306 293 105 51 41 89 129 130 131 128 131 137 145 160 98 60 56 44 56 64 72 70 65 59 54 48 37 33 31 29 18 7 11 33 40 34 26 10 21 50 51 62 61 63 68 74 71 64 70 72 70 68 53 59 67 68 75 79 86 96 83 62 53 46 47 30 113 138 131
73 158 218 221 283 235 187 197 171 135 73 36 21 357 2 310 292 250 262 124 54 90 117 134 133 135 136 142 146 159 223 113 90 80 74 66 62 57 58 56 51 48 40 33 28 26 27 23 14 15 23 30 38 29 21 25 37 49 51 53 54 61 59 61 63 64 69 72 80 80 78 82 80 79 80 82 82 80 74 56 57 69 59 42 39 67
61 256 217 230 197 243 147 105 66 54 91 15 354 355 342 295 262 279 211 96 60 103 121 135 137 143 144 147 155 48 340 176 139 127 108 82 74 62 54 45 40 37 33 29 25 24 30 22 25 19 20 19 18 24 29 31 35 37 51 51 52 56 54 52 54 60 66 70 74 79 76 72 78 79 74 71 69 77 88 95 88 84 85 76 73 55
93 244 172 265 226 100 105 101 114 94 65 358 345 335 322 335 272 277 47 32 67 136 129 135 136 139 142 94 34 78 34 69 114 123 109 97 82 72 63 56 50 41 33 26 21 17 28 30 33 30 24 22 11 12 23 33 42 40 43 46 52 54 51 50 51 55 58 61 62 61 60 59 59 64 74 86 88 89 89 87 95 102 101 104 101 95
18 333 162 69 32 42 40 98 92 80 36 349 337 320 351 303 310 47 2 304 156 131 134 129 130 121 70 73 93 92 97 99 108 109 103 92 83 79 71 64 60 54 49 46 31 21 25 29 27 28 24 20 17 18 19 28 44 46 44 45 43 38 40 49 54 55 59 59 58 56 53 50 49 51 52 52 59 68 76 82 100 129 136 124 126 130
12 320 26 45 342 309 103 107 110 81 35 5 331 298 22 15 35 318 329 55 102 118 131 129 110 100 105 98 102 106 105 105 103 102 99 91 83 75 70 64 56 50 44 38 44 43 35 36 32 27 22 14 18 23 21 26 42 49 48 48 38 33 34 38 45 53 56 57 56 54 55 53 51 48 44 47 49 52 57 61 67 71 80 111 113 120
337 287 51 69 4 30 48 51 47 12 327 359 11 40 10 15 326 299 281 97 101 104 97 82 82 100 110 115 114 107 103 104 98 95 90 86 83 78 71 63 57 54 49 44 45 44 47 55 45 40 27 26 23 27 28 31 42 47 54 51 40 38 39 40 40 47 53 54 56 58 57 59 58 53 54 47 49 56 50 47 51 49 42 37 123 140
23 56 29 70 27 43 60 69 43 20 18 28 33 37 40 20 19 37 61 61 82 79 84 94 98 102 108 111 108 107 104 97 98 96 92 86 76 69 64 58 52 50 52 52 48 48 56 64 66 60 36 14 29 37 47 45 38 40 49 46 46 48 48 45 44 47 51 50 48 52 61 59 54 52 50 52 48 46 49 44 25 51 48 46 39 30
95 91 99 88 86 87 67 58 57 54 48 53 51 45 38 42 38 53 68 73 55 65 80 97 103 101 101 101 103 98 100 108 105 100 87 71 66 64 61 58 51 46 52 64 71 68 71 80 77 69 62 52 47 54 39 41 50 54 58 62 62 63 75 83 77 63 59 61 56 49 50 57 63 55 45 47 51 46 40 33 33 26 25 25 32 29
85 88 85 95 144 111 58 51 61 59 61 64 69 62 55 51 54 59 71 68 71 65 75 81 95 99 100 102 102 111 110 107 96 86 79 71 67 62 58 57 44 30 34 59 75 96 88 80 81 78 70 59 48 44 32 35 41 47 50 52 55 55 52 56 70 83 82 79 83 80 69 53 44 66 57 44 45 50 40 30 31 35 28 19 15 19
92 89 83 76 75 79 100 86 78 72 67 65 64 68 64 61 65 74 77 79 79 67 67 82 98 97 102 102 107 106 111 114 113 114 103 91 85 85 80 81 77 70 62 74 90 90 90 92 88 86 87 84 78 76 76 51 38 39 41 45 46 50 54 52 45 49 52 57 57 55 66 72 53 58 71 59 51 43 37 31 25 41 43 22 7 1
115 164 80 104 95 103 112 107 97 81 69 64 68 73 86 92 87 84 86 89 89 81 69 63 52 69 92 102 98 90 84 82 84 99 109 109 97 84 86 89 90 97 102 91 81 81 87 88 90 105 116 118 130 128 106 73 59 51 48 43 41 43 49 55 60 56 53 50 54 56 50 55 55 51 56 79 78 62 45 32 25 33 57 47 29 24
106 102 115 114 110 114 120 130 43 81 75 72 76 84 90 96 98 97 93 84 74 66 60 67 66 55 45 33 60 102 116 123 106 80 63 59 68 84 86 89 100 97 91 80 75 68 60 59 70 61 60 58 52 52 59 59 51 44 42 42 39 39 42 45 49 59 56 47 40 40 49 49 51 48 51 46 82 109 85 44 33 31 44 56 69 60
57 70 203 103 98 96 99 91 85 90 90 86 92 98 99 99 101 99 95 94 89 87 87 87 79 62 49 43 30 38 29 32 71 95 86 77 69 77 87 95 95 97 99 108 104 89 79 75 69 76 73 69 58 53 46 47 46 45 37 35 39 35 36 39 46 45 50 53 51 19 26 55 46 50 47 49 34 67 125 116 72 48 52 64 61 47